Location: Rowland
(34.5359°N, 79.2929°W)
Time: 20:12:49
(UTC+00:00)

Transit 2A - Pass Details

Date: 10 October 2022
Orbit: 598 x 959 km, 66.7° (Epoch: 03 December)

Event Time Altitude Azimuth Distance (km) Brightness Sun altitude
Rises 03:16:15 0° 245° (WSW) 2,907 - -52.6°
Reaches altitude 10° 03:19:17 10° 267° (W) 1,966 - -53.0°
Maximum altitude 03:22:05 17° 307° (NW) 1,564 - -53.5°
Drops below altitude 10° 03:24:52 10° 347° (NNW) 1,939 - -53.9°
Sets 03:27:51 0° 9° (N) 2,850 - -54.3°
